CST,Max TemperatureF,Mean TemperatureF,Min TemperatureF,Max Dew PointF,MeanDew PointF,Min DewpointF,Max Humidity, Mean Humidity, Min Humidity, Max Sea Level PressureIn, Mean Sea Level PressureIn, Min Sea Level PressureIn, Max VisibilityMiles, Mean VisibilityMiles, Min VisibilityMiles, Max Wind SpeedMPH, Mean Wind SpeedMPH, Max Gust SpeedMPH,PrecipitationIn, CloudCover, Events, WindDirDegrees
2014-1-1,-4,-10,-16,-12,-14,-19,83,74,64,30.54,30.44,30.24,10,7,2,14,5,17,T,5,Snow,80
2014-1-2,13,-4,-22,7,-8,-26,88,80,72,30.53,30.23,29.78,10,8,1,23,9,31,T,3,Snow,159
2014-1-3,41,26,10,34,17,6,80,75,69,29.85,29.43,29.13,10,6,1,32,20,40,0.04,7,Rain-Snow,300
2014-1-4,10,-1,-12,2,-12,-19,83,72,61,30.43,30.19,29.82,10,8,2,31,20,38,T,2,Snow,285
2014-1-5,-10,-15,-21,-19,-27,-30,74,68,62,30.70,30.52,30.25,10,5,0,39,24,45,T,7,Snow,290
2014-1-6,-1,-11,-22,-9,-22,-29,70,64,57,30.61,30.42,30.14,10,10,9,25,16,30,T,5,Snow,267
2014-1-7,1,-7,-15,-6,-11,-20,83,74,65,30.41,30.25,30.09,10,10,6,14,7,18,T,2,Snow,294
2014-1-8,15,-2,-20,9,-9,-25,81,75,69,30.44,30.20,29.78,10,10,9,25,10,31,T,4,Snow,177
2014-1-9,35,25,15,23,16,10,81,73,64,29.81,29.68,29.53,10,10,9,25,9,32,0.00,4,,178
2014-1-10,33,30,26,25,22,19,92,76,59,29.64,29.48,29.39,10,10,9,23,14,30,T,4,,261
2014-1-11,38,28,18,22,18,13,84,77,69,29.71,29.64,29.52,10,10,9,23,12,29,T,3,,235
2014-1-12,41,30,18,31,22,14,77,68,59,29.68,29.44,29.18,10,10,9,33,19,42,T,4,Snow,274
2014-1-13,30,20,9,22,16,7,84,79,73,29.81,29.61,29.48,10,10,9,40,13,50,T,5,Snow,249
2014-1-14,22,14,6,6,3,0,80,67,54,30.34,30.28,30.15,10,10,9,44,20,52,T,1,Snow,283
2014-1-15,43,26,8,29,21,3,81,67,53,30.17,29.66,29.49,10,10,7,48,24,59,T,5,Rain-Snow,245
2014-1-16,35,22,9,26,10,0,85,72,59,30.31,29.98,29.63,10,6,0,53,23,67,0.04,4,Fog,306
2014-1-17,36,23,10,30,19,7,88,76,63,30.22,29.87,29.58,10,10,8,39,16,50,T,4,Snow,234
2014-1-18,39,34,28,30,26,21,85,75,64,30.05,29.83,29.62,10,9,1,37,20,49,0.01,5,Snow,296
2014-1-19,40,36,32,28,26,25,75,67,59,29.79,29.64,29.50,10,10,10,35,20,43,T,2,,269
2014-1-20,35,13,-10,26,-3,-16,88,74,59,30.65,30.22,29.78,10,5,1,28,12,32,T,6,Snow,1
2014-1-21,23,10,-3,17,8,-9,80,73,65,30.45,30.08,29.90,10,6,2,32,18,41,T,7,Snow,267
2014-1-22,20,6,-9,12,-7,-17,79,69,58,30.82,30.45,30.08,10,7,0,33,15,43,T,4,Fog-Snow,326
2014-1-23,31,9,-13,23,-2,-19,72,65,58,30.83,30.42,29.89,10,10,9,29,17,40,T,1,Snow,222
2014-1-24,38,30,21,31,27,14,89,81,72,30.00,29.79,29.64,10,10,4,29,22,37,T,7,Snow,289
2014-1-25,21,15,9,30,13,-2,88,70,51,30.11,29.72,29.38,10,6,0,23,11,30,0.10,6,Snow,187
2014-1-26,28,8,-12,21,-2,-20,81,73,64,30.50,29.91,29.50,10,4,0,41,27,53,T,8,Fog-Snow,314
2014-1-27,-6,-10,-15,-16,-20,-23,70,65,59,30.58,30.53,30.33,10,10,10,24,17,30,0.00,0,Snow,284
2014-1-28,13,0,-13,-2,-12,-21,66,61,55,30.50,30.27,29.90,10,10,10,21,14,25,0.00,0,,246
2014-1-29,19,14,8,9,5,-1,73,65,56,29.83,29.64,29.48,10,10,9,32,18,37,T,3,Snow,273
2014-1-30,8,1,-7,-2,-10,-15,79,69,59,30.10,29.96,29.72,10,9,4,28,16,35,T,4,Snow,298
2014-1-31,17,5,-7,6,-4,-14,76,69,61,30.06,29.91,29.79,10,10,9,30,15,38,T,2,Snow,243